GJZ 04

导读

GJZ 04卫星由中国于北京时间2024年12月12日08:00发射升空,作为中国航天领域2024年末收官任务的重要节点,该卫星承载着特定空间观测、技术验证或服务保障使命。入轨后经过近一年多的在轨调试与运行,已完成既定测试流程,目前稳定运行在预定轨道,持续为相关领域科研与应用提供数据支撑,推动中国航天网络建设与技术发展。

Basic Information
目录编号:
62293
目录名称:
GJZ 04
国际标识:
2024-238D
轨道中心:
EARTH
卫星名称:
GJZ 04
卫星全名:
GJZ 04
卫星状态:
在轨 (已飞行550 天)
发射日期:
2024-12-12 UTC
国别 :
中国 (CN)
星等 :
--
Orbit Information
数据来源 国际轨道数据
星历时间: 2026-06-15T05:02:04+0800
5小时前
查看轨道信息
半长轴: 7359.101km
偏心率: 0.0014035
轨道倾角: 59.914°
近地点辐角 13.749°
升交点赤经 278.048°
平近点角 346.390°
近地点: 970.635km
远地点: 991.293km
周期: 104.712分钟
每日圈数: 13.751994
Detailed Information
使用方式:
暂无
2D Orbit Map
3D Orbit Map
Orbit Altitude Analysis Chart
Orbit Inclination Analysis Chart
Orbit Comprehensive Analysis Chart
View Comprehensive Chart